| time (UTC) | temp C | wind direction | speed KPH | gust KPH | rain 1hr cm | rain 24hr cm | rain mn cm | humidity % | barometer mb |
| 20260905082502 | 25 | 158 | 0.0 | 0.0 | 0.00 | 0.00 | 0.00 | 81 | 1010.8 |
| 20260905075902 | 25 | 113 | 0.0 | 0.0 | 0.00 | 0.00 | 0.00 | 81 | 1010.8 |
| 20260905074402 | 25 | 0 | 0.0 | 0.0 | 0.00 | 0.00 | 0.00 | 80 | 1010.8 |
| 20260905072002 | 26 | 158 | 0.0 | 0.0 | 0.00 | 0.00 | 0.00 | 79 | 1011.2 |
| 20260905070902 | 26 | 158 | 0.0 | 0.0 | 0.00 | 0.00 | 0.00 | 79 | 1011.2 |
| 20260905065702 | 26 | 158 | 0.0 | 0.0 | 0.00 | 0.00 | 0.00 | 79 | 1011.2 |
| 20260905064602 | 26 | 158 | 0.0 | 0.0 | 0.00 | 0.00 | 0.00 | 80 | 1011.2 |
| 20260905063502 | 26 | 158 | 0.0 | 0.0 | 0.00 | 0.00 | 0.00 | 81 | 1011.5 |
| 20260905062402 | 26 | 158 | 0.0 | 0.0 | 0.00 | 0.00 | 0.00 | 81 | 1011.2 |
| 20260905055702 | 26 | 158 | 0.0 | 0.0 | 0.00 | 0.00 | 0.00 | 79 | 1011.5 |
| 20260905054502 | 27 | 135 | 0.0 | 0.0 | 0.00 | 0.00 | 0.00 | 79 | 1011.5 |
| 20260905053402 | 27 | 158 | 0.0 | 0.0 | 0.00 | 0.00 | 0.00 | 79 | 1011.2 |
| 20260905052306 | 27 | 158 | 0.0 | 0.0 | 0.00 | 0.00 | 0.00 | 78 | 1011.2 |
| 20260905050103 | 27 | 158 | 0.0 | 1.6 | 0.00 | 0.00 | 0.00 | 76 | 1011.2 |
| 20260905045305 | 27 | 158 | 0.0 | 0.0 | 0.00 | 0.00 | 0.00 | 76 | 1011.2 |
| 20260905043903 | 27 | 90 | 0.0 | 0.0 | 0.00 | 0.00 | 0.00 | 76 | 1010.8 |
| 20260905042802 | 27 | 135 | 0.0 | 0.0 | 0.00 | 0.00 | 0.00 | 76 | 1010.8 |
| 20260905041703 | 28 | 158 | 0.0 | 0.0 | 0.00 | 0.00 | 0.00 | 75 | 1010.8 |
| 20260905035402 | 28 | 158 | 1.6 | 1.6 | 0.00 | 0.00 | 0.00 | 75 | 1010.5 |
| 20260905034203 | 28 | 113 | 0.0 | 0.0 | 0.00 | 0.00 | 0.00 | 75 | 1010.8 |
| 20260905032802 | 28 | 158 | 0.0 | 1.6 | 0.00 | 0.00 | 0.00 | 74 | 1010.5 |
| 20260905031702 | 28 | 135 | 0.0 | 0.0 | 0.00 | 0.00 | 0.00 | 74 | 1010.5 |
| 20260905030202 | 29 | 158 | 0.0 | 0.0 | 0.00 | 0.00 | 0.00 | 75 | 1010.5 |
| 20260905024403 | 29 | 158 | 0.0 | 0.0 | 0.00 | 0.00 | 0.00 | 75 | 1010.5 |
| 20260905023303 | 29 | 158 | 0.0 | 0.0 | 0.00 | 0.00 | 0.00 | 76 | 1010.2 |
| 20260905022202 | 29 | 158 | 0.0 | 0.0 | 0.00 | 0.00 | 0.00 | 78 | 1010.2 |
| 20260905021102 | 29 | 158 | 0.0 | 0.0 | 0.00 | 0.00 | 0.00 | 76 | 1010.2 |
| 20260905020003 | 30 | 158 | 0.0 | 0.0 | 0.00 | 0.00 | 0.00 | 75 | 1010.2 |
| 20260905014402 | 30 | 158 | 0.0 | 0.0 | 0.00 | 0.00 | 0.00 | 73 | 1009.8 |
| 20260905013102 | 31 | 158 | 0.0 | 0.0 | 0.00 | 0.00 | 0.00 | 70 | 1009.8 |
| 20260905011903 | 31 | 158 | 0.0 | 0.0 | 0.00 | 0.00 | 0.00 | 68 | 1009.5 |
| 20260905010803 | 31 | 158 | 0.0 | 0.0 | 0.00 | 0.00 | 0.00 | 65 | 1009.8 |
| 20260905005702 | 32 | 158 | 0.0 | 0.0 | 0.00 | 0.00 | 0.00 | 65 | 1009.5 |
| 20260905004103 | 32 | 158 | 0.0 | 1.6 | 0.00 | 0.00 | 0.00 | 65 | 1009.5 |
| 20260905003002 | 33 | 158 | 0.0 | 0.0 | 0.00 | 0.00 | 0.00 | 63 | 1009.5 |
| 20260905000503 | 33 | 135 | 0.0 | 0.0 | 0.00 | 0.00 | 0.00 | 63 | 1009.5 |
| 20260904235305 | 33 | 158 | 0.0 | 0.0 | 0.00 | 0.00 | 0.00 | 61 | 1009.1 |
| 20260904233903 | 33 | 158 | 0.0 | 3.2 | 0.00 | 0.00 | 0.00 | 59 | 1009.5 |
| 20260904232702 | 34 | 158 | 3.2 | 3.2 | 0.00 | 0.00 | 0.00 | 56 | 1009.5 |
| 20260904230402 | 35 | 158 | 3.2 | 3.2 | 0.00 | 0.00 | 0.00 | 55 | 1009.5 |
| 20260904223902 | 35 | 158 | 6.4 | 6.4 | 0.00 | 0.00 | 0.00 | 55 | 1009.5 |
| 20260904221702 | 35 | 113 | 4.8 | 4.8 | 0.00 | 0.00 | 0.00 | 55 | 1009.5 |
| 20260904220502 | 36 | 113 | 4.8 | 4.8 | 0.00 | 0.00 | 0.00 | 55 | 1009.1 |
| 20260904215002 | 36 | 158 | 6.4 | 6.4 | 0.00 | 0.00 | 0.00 | 51 | 1009.5 |
| 20260904212306 | 35 | 158 | 4.8 | 4.8 | 0.00 | 0.00 | 0.00 | 54 | 1009.1 |
| 20260904203202 | 35 | 158 | 4.8 | 4.8 | 0.00 | 0.00 | 0.00 | 54 | 1009.5 |
| 20260904202103 | 35 | 158 | 4.8 | 6.4 | 0.00 | 0.00 | 0.00 | 54 | 1009.5 |
| 20260904175502 | 32 | 135 | 4.8 | 4.8 | 0.00 | 0.00 | 0.00 | 63 | 1010.2 |
| 20260904173902 | 27 | 113 | 6.4 | 6.4 | 0.00 | 0.00 | 0.00 | 74 | 1010.5 |
| 20260904142903 | 27 | 158 | 3.2 | 3.2 | 0.00 | 0.00 | 0.00 | 74 | 1010.2 |
| 20260904124102 | 25 | 158 | 3.2 | 3.2 | 0.00 | 0.00 | 0.00 | 78 | 1009.5 |
| 20260904122502 | 25 | 158 | 1.6 | 3.2 | 0.00 | 0.00 | 0.00 | 78 | 1009.5 |
| 20260904115902 | 25 | 158 | 3.2 | 3.2 | 0.00 | 0.00 | 0.00 | 78 | 1009.1 |
| 20260904114602 | 25 | 158 | 1.6 | 1.6 | 0.00 | 0.00 | 0.00 | 76 | 1009.5 |
| 20260904113202 | 25 | 45 | 3.2 | 3.2 | 0.00 | 0.00 | 0.00 | 76 | 1009.1 |
| 20260904104902 | 27 | 45 | 3.2 | 3.2 | 0.00 | 0.00 | 0.00 | 70 | 1009.1 |
| 20260904101703 | 27 | 158 | 4.8 | 4.8 | 0.00 | 0.00 | 0.00 | 70 | 1009.1 |
| 20260904100402 | 27 | 158 | 3.2 | 3.2 | 0.00 | 0.00 | 0.00 | 70 | 1009.1 |
| 20260904091302 | 27 | 248 | 3.2 | 3.2 | 0.00 | 0.00 | 0.00 | 70 | 1008.5 |
| 20260904084702 | 27 | 113 | 6.4 | 6.4 | 0.00 | 0.00 | 0.00 | 69 | 1008.5 |